Wind_Speed
25 24 25 26 27 27 26 26 26 27 27 27 27 26 27 28 29 29 30 30 30 29 29 29 28 27 26 25 23 23 22 23 23 23 23 22 22 21 21 21 20 19 19 19 20 22 21 21 21 22 21 20 20 19 19 19 18 18 18 19 20 19 19 19 18 17 17 18 18 19 20 20 18 18 19 20 21 22 23 24 22 21 23 22 21
26 25 24 25 27 27 26 26 26 27 27 27 27 27 26 27 27 27 28 28 29 28 28 28 27 26 25 23 23 24 22 22 23 23 23 22 21 21 21 21 21 20 20 20 22 22 21 21 21 22 21 20 19 19 19 19 18 18 18 19 19 19 18 17 17 17 18 19 19 19 19 19 19 18 18 19 20 21 21 22 23 21 22 22 21
26 24 23 24 27 27 26 26 27 27 27 27 28 28 27 27 27 26 27 27 28 28 27 26 26 26 24 23 24 24 23 22 22 22 23 22 21 21 21 21 21 21 21 22 21 20 20 21 21 21 20 19 19 19 19 19 19 18 18 18 16 17 18 16 17 18 18 20 21 20 18 18 19 18 18 18 18 19 19 20 22 21 22 22 21
25 25 23 24 25 27 26 26 27 26 27 27 27 27 26 26 27 26 26 26 27 26 26 25 25 24 23 23 24 24 22 22 22 23 23 22 21 21 22 22 22 22 22 22 21 21 21 22 21 21 20 19 19 19 18 18 19 18 17 17 16 16 18 17 17 18 18 20 21 20 17 17 17 17 17 16 15 16 18 18 19 20 20 21 20
25 25 24 24 24 26 26 26 26 26 27 27 27 26 25 25 26 26 26 25 25 25 25 24 23 23 23 24 24 23 22 22 22 22 23 23 23 22 22 22 23 22 22 21 22 23 22 21 21 19 19 18 18 18 17 17 18 17 17 17 17 17 18 17 17 17 17 19 20 18 16 15 15 15 15 14 14 15 16 16 16 17 18 18 18
26 24 24 23 23 25 26 26 26 26 25 26 27 26 25 24 25 25 26 26 25 24 23 23 23 24 24 24 23 23 23 23 22 22 23 23 23 22 22 22 23 22 21 20 21 21 20 20 19 18 17 17 17 17 16 15 16 15 15 15 16 18 18 17 16 16 16 16 17 16 15 14 13 13 13 13 14 14 15 15 14 14 16 17 16
25 24 23 22 23 24 26 26 26 26 25 25 26 26 24 23 24 24 24 25 24 23 23 23 23 23 23 22 21 22 23 23 23 22 23 22 22 21 22 22 22 22 21 19 19 19 18 18 17 16 16 15 14 15 13 13 14 13 13 14 14 17 18 17 17 18 17 15 14 14 13 12 12 12 12 13 13 12 12 13 13 13 14 16 15
23 23 22 22 24 25 26 26 25 26 25 25 25 25 25 23 23 23 23 23 23 23 23 24 23 22 21 20 20 20 21 22 22 23 23 23 22 22 22 22 22 22 21 19 19 18 18 17 16 15 15 14 13 13 12 12 13 11 11 13 14 15 16 16 18 19 18 14 13 13 13 12 12 12 12 12 12 11 12 12 12 13 13 15 14
22 22 21 22 24 27 27 25 25 25 25 25 25 25 25 25 24 23 23 23 23 23 23 23 22 21 20 20 20 19 19 19 20 21 22 22 22 22 22 22 22 22 21 19 18 18 17 17 16 15 14 14 13 12 12 12 12 10 9 11 13 14 15 16 18 18 16 14 13 13 12 12 11 11 11 11 11 12 13 11 11 13 13 15 14
22 22 22 22 26 29 27 26 25 25 25 26 26 25 24 24 24 24 24 23 23 22 22 22 21 21 20 19 19 19 19 18 19 19 20 21 21 22 23 22 21 21 20 18 18 17 17 17 15 14 13 13 13 12 12 11 11 9 8 10 12 14 15 16 18 16 15 15 14 14 14 13 12 12 11 11 11 11 11 12 12 13 13 14 14
20 20 21 21 26 29 27 26 25 24 25 26 26 25 24 23 23 25 24 23 22 21 21 21 21 20 21 20 20 20 20 19 19 18 19 20 20 21 22 22 21 20 19 18 17 17 17 16 15 14 14 13 13 12 11 11 11 10 8 10 12 14 17 18 16 15 15 15 15 15 15 14 13 13 12 12 13 12 13 13 14 13 13 13 14
20 19 19 21 25 27 26 25 25 24 24 25 25 25 24 23 23 23 22 22 22 22 21 21 20 19 20 21 21 20 20 20 20 20 19 19 19 19 20 20 21 20 18 17 17 17 17 16 15 15 14 14 13 13 13 13 13 12 10 10 12 14 17 17 14 14 15 15 15 14 14 14 14 14 14 14 14 14 15 15 14 14 13 14 14
19 18 18 21 23 25 26 25 25 24 24 24 24 24 23 23 23 22 21 21 21 22 22 21 19 19 19 19 19 18 19 19 20 21 20 19 19 19 18 19 20 19 17 17 17 17 16 16 16 15 13 12 13 13 15 15 15 13 12 11 13 14 15 16 14 14 15 15 15 14 13 14 14 14 13 13 13 14 14 14 15 14 14 14 13
20 18 19 21 21 23 24 23 24 23 23 24 23 23 22 22 22 22 21 20 20 20 20 20 19 19 19 18 18 18 18 19 19 20 19 18 18 17 15 16 18 18 17 16 17 16 16 16 15 15 13 12 12 14 15 16 16 14 13 12 13 14 15 15 13 13 14 14 14 13 13 13 13 13 12 12 13 13 14 14 14 14 14 14 13
22 20 19 20 21 22 22 22 23 22 22 23 22 21 21 21 21 21 21 20 20 19 19 18 17 18 19 18 18 18 18 18 19 18 17 15 15 14 12 13 15 16 16 15 15 16 16 15 15 15 14 12 12 14 16 16 16 15 13 12 13 14 15 13 12 13 14 14 13 13 13 13 12 12 13 13 13 13 13 13 13 14 14 14 14
22 22 20 20 21 20 20 20 22 22 21 21 20 20 20 20 19 20 20 20 20 19 19 18 17 17 18 17 17 18 17 17 17 17 16 14 13 12 12 12 14 15 16 14 14 15 15 16 16 15 14 13 12 14 15 16 15 15 13 12 12 13 15 14 12 12 13 13 13 12 12 12 12 12 13 13 13 13 13 13 13 13 13 13 14
21 21 20 20 20 19 19 20 22 22 21 20 19 19 19 19 19 19 19 19 20 19 19 19 17 16 17 17 16 16 16 15 15 16 15 13 12 12 13 12 13 16 16 15 14 14 15 16 16 14 14 14 13 13 14 15 15 14 12 11 12 12 14 15 12 12 13 13 13 12 12 12 12 12 13 13 13 13 12 13 13 13 14 14 13
21 21 21 21 20 19 19 21 22 22 21 20 19 19 19 19 19 18 18 19 19 19 19 18 17 16 16 16 16 15 15 15 14 14 13 12 12 13 14 12 13 15 15 16 15 14 15 15 14 13 13 13 13 13 14 14 14 14 12 11 11 11 13 15 13 12 12 12 12 12 12 12 12 12 12 13 13 13 13 13 13 14 13 13 12
20 20 21 21 21 20 20 20 20 20 20 19 19 20 20 20 19 19 19 19 20 19 19 18 17 16 16 16 16 15 15 14 14 13 12 12 13 13 13 13 13 14 14 15 14 14 14 14 14 13 12 13 12 12 14 15 14 13 12 11 11 11 12 13 12 11 12 11 12 12 13 13 12 12 12 12 12 12 12 12 13 13 13 13 12
20 20 19 20 22 20 19 19 19 20 19 18 19 20 20 19 19 19 19 19 19 19 19 18 17 16 16 16 16 16 15 14 13 13 13 13 13 12 12 12 12 13 13 14 13 13 14 14 13 13 12 12 12 12 14 15 15 13 12 11 10 11 11 11 11 11 11 11 12 12 13 13 13 13 12 12 11 11 11 12 12 12 12 12 12
19 19 17 18 19 18 18 18 20 21 19 19 19 20 19 18 18 18 19 18 18 17 18 18 18 17 16 17 16 17 16 13 13 13 13 13 13 11 11 12 13 13 13 12 12 12 13 14 13 13 12 12 12 12 13 15 15 13 12 11 10 10 11 11 11 11 11 11 12 12 13 14 14 13 12 12 12 12 12 12 11 11 11 11 11
19 19 19 19 18 19 20 20 22 22 20 20 20 20 20 19 17 18 18 18 17 17 17 18 18 17 17 16 16 17 16 14 14 14 14 13 12 11 10 10 11 12 12 12 11 11 12 13 13 14 13 12 12 12 14 15 14 13 11 10 10 9 10 11 11 10 10 11 11 12 12 13 13 12 12 13 13 13 12 11 10 10 10 10 10
21 21 21 21 20 21 21 21 24 24 22 21 21 21 21 20 18 18 18 17 17 16 17 18 17 16 16 16 16 17 16 14 14 13 13 12 11 11 10 9 9 10 12 12 12 11 12 12 13 14 14 13 13 13 14 15 13 12 11 10 9 9 10 11 10 10 10 10 11 11 11 12 11 11 12 13 13 12 11 10 9 9 9 9 9
22 21 22 22 21 22 21 21 23 24 23 22 23 23 22 21 18 18 18 17 17 16 17 17 17 16 16 17 16 16 15 14 13 13 12 11 11 11 10 9 9 10 11 12 12 11 12 12 12 13 14 13 13 14 14 14 13 12 11 10 9 9 10 10 10 10 10 10 10 11 11 10 9 9 11 12 12 11 10 10 9 9 9 9 9
22 20 21 21 21 21 20 20 22 24 24 22 24 25 23 21 19 18 18 17 17 17 17 17 17 16 16 16 16 16 15 14 14 14 11 11 11 10 9 9 10 10 10 11 11 11 11 12 12 13 14 13 13 14 15 13 12 13 12 10 9 8 9 9 10 10 10 9 10 10 10 9 7 8 10 12 12 11 11 11 10 9 9 9 9
18 19 19 19 20 20 20 21 22 24 24 22 23 25 23 22 19 18 18 17 17 17 16 16 16 15 15 15 16 16 15 14 14 12 10 10 10 8 9 10 9 9 9 9 10 11 12 13 13 14 14 13 12 13 14 14 14 15 13 11 9 8 9 9 9 9 9 8 9 9 8 7 5 7 10 11 12 13 13 13 11 10 10 9 8
15 15 16 19 21 21 21 22 22 23 24 22 23 23 22 22 19 18 17 17 17 16 16 15 15 15 15 15 15 15 14 14 13 11 10 9 9 9 10 10 9 9 9 9 9 11 12 13 14 14 14 13 12 13 14 16 16 15 13 11 9 8 9 9 8 8 8 8 8 9 7 5 5 7 10 11 11 13 13 14 12 10 10 9 8
14 14 14 18 20 20 21 22 22 23 23 22 22 21 21 21 19 18 17 17 17 15 15 15 15 15 15 14 14 14 13 12 11 11 10 9 10 10 10 9 9 9 9 9 9 10 11 12 13 14 13 12 11 13 15 17 17 15 14 12 10 9 9 9 9 8 8 7 8 8 6 5 6 10 11 10 10 11 11 13 13 10 9 8 8
16 14 15 18 19 19 21 21 22 24 23 22 22 20 20 19 18 17 16 17 16 14 14 15 15 16 14 14 14 13 12 11 10 10 10 10 11 11 11 10 9 10 10 9 9 10 10 11 12 12 12 12 12 14 16 17 17 15 14 12 10 9 9 9 9 8 8 7 8 7 6 7 9 12 11 9 8 7 8 11 11 10 9 9 9
17 16 16 17 20 20 19 20 23 25 24 22 20 19 19 19 18 16 15 16 15 14 15 15 15 15 14 13 13 12 12 12 11 11 11 11 12 11 11 10 9 9 9 8 8 9 9 10 11 11 12 12 12 14 16 17 17 15 13 11 10 9 8 8 8 8 7 7 8 7 7 10 11 12 10 9 8 6 7 10 10 10 10 10 10
17 17 16 15 22 23 18 21 25 26 25 22 20 21 21 21 19 16 16 16 14 14 15 15 15 14 12 12 11 11 11 11 11 11 12 12 11 11 11 10 9 9 8 7 7 8 8 9 10 11 12 11 12 13 15 16 16 15 12 11 10 8 8 8 8 7 7 7 8 8 8 10 10 10 9 9 9 6 8 10 11 12 12 11 11
17 18 17 16 22 25 19 22 25 26 27 25 24 24 23 21 19 18 17 16 15 13 12 14 15 13 12 11 10 10 11 10 10 11 11 11 11 11 10 9 9 8 7 6 6 7 8 8 9 11 11 11 12 13 13 15 15 14 12 10 9 7 7 8 8 7 8 8 8 9 8 8 8 8 7 8 8 7 8 9 10 11 10 10 9
17 18 18 16 20 26 22 22 25 26 27 27 26 25 23 21 20 19 18 16 14 13 13 12 13 13 13 12 10 10 11 10 9 9 9 9 9 9 9 8 7 7 6 5 5 7 8 8 9 10 11 12 13 14 14 14 14 12 10 9 8 7 7 8 8 8 9 9 8 8 7 7 7 6 5 5 6 5 6 7 8 9 7 7 6
16 18 20 16 18 25 24 21 25 26 25 24 25 25 23 21 20 18 18 15 13 14 16 13 12 13 13 12 10 9 8 8 8 8 8 8 8 8 7 7 6 5 6 5 5 7 8 8 9 10 12 12 11 13 13 12 11 9 8 7 8 8 8 7 8 9 9 10 8 7 7 6 6 6 5 3 3 4 4 6 8 7 6 5 5
15 17 22 20 17 22 25 23 24 24 22 21 24 25 23 21 19 17 15 13 12 14 15 13 12 13 12 11 10 8 7 7 7 7 7 8 8 7 6 5 4 4 6 6 6 7 8 8 8 10 11 9 8 9 10 10 10 10 10 9 8 8 9 8 8 8 9 9 8 6 6 5 4 5 5 5 4 5 6 7 8 7 6 6 6
17 16 20 23 21 18 21 24 24 23 21 23 24 24 23 20 18 16 13 12 13 14 13 12 13 13 11 9 8 7 7 7 6 6 6 7 7 6 5 5 5 6 7 7 7 7 8 9 9 9 10 9 8 8 8 9 11 12 13 11 10 9 9 9 7 8 8 7 6 5 5 4 4 5 5 5 5 6 7 8 7 7 6 6 6
19 18 17 20 21 18 18 21 23 21 20 25 25 22 21 19 17 15 14 13 14 14 12 12 13 12 9 6 6 6 8 7 6 6 6 6 7 6 6 6 6 7 8 8 7 7 7 8 9 10 9 8 9 9 9 11 13 14 14 12 11 9 9 9 7 7 7 7 6 5 5 5 5 5 5 5 5 5 6 7 7 6 6 7 7
18 19 17 17 17 17 19 20 20 18 17 23 24 21 19 17 16 16 15 15 15 13 11 11 11 10 7 6 7 8 8 7 6 6 5 6 7 6 7 8 7 7 8 7 7 7 7 8 10 10 7 7 10 9 10 13 15 13 12 11 10 8 8 8 7 7 7 7 6 5 5 5 5 5 5 5 4 4 5 6 6 6 6 7 7
17 18 19 17 15 16 19 19 19 17 15 18 20 20 17 15 16 16 15 15 14 12 11 10 10 9 8 8 9 8 7 6 7 6 6 6 7 7 8 8 8 6 7 7 6 7 8 8 9 9 7 6 9 10 12 15 15 12 11 11 9 7 8 7 6 7 7 6 5 5 5 4 5 5 5 5 4 4 5 5 5 5 6 7 8
16 15 17 17 16 16 18 19 18 17 17 17 17 17 16 15 16 15 15 14 13 12 10 9 10 10 8 8 8 8 7 7 8 8 7 7 7 8 8 8 7 6 6 7 7 6 7 7 7 9 9 8 9 10 13 14 13 12 11 12 10 8 8 8 7 7 6 6 5 4 4 4 4 4 5 6 6 6 6 5 5 6 7 7 7
15 13 14 17 17 17 19 20 19 18 20 18 16 16 15 15 16 15 14 13 12 11 9 10 11 9 7 7 8 8 9 9 9 9 8 8 8 9 9 9 8 7 6 7 7 6 7 6 7 9 10 12 12 12 16 17 14 13 12 12 12 10 9 9 8 7 6 6 5 4 4 4 5 5 7 8 8 8 8 7 6 6 7 7 7
15 14 14 16 19 19 20 21 20 18 20 18 15 16 14 14 15 14 13 11 11 10 9 11 10 8 8 8 9 10 10 10 10 9 9 9 9 10 10 10 8 7 7 7 8 7 7 7 8 11 11 13 13 14 19 18 13 12 13 13 11 11 11 11 10 9 7 6 5 5 5 5 6 7 7 8 8 9 9 8 7 6 7 7 7
15 15 14 15 17 18 18 21 20 17 20 20 16 14 13 12 12 12 12 11 10 9 9 10 10 9 9 9 10 11 10 10 9 9 8 9 10 11 11 11 9 8 8 9 8 8 8 8 10 12 12 12 13 14 18 17 14 13 12 10 7 7 9 10 11 9 8 7 6 6 6 6 7 7 7 8 9 9 8 8 7 7 8 8 9
15 15 14 15 16 15 16 18 18 17 20 22 18 13 11 11 9 9 10 9 8 8 8 9 10 10 10 10 10 9 9 9 9 8 8 8 9 11 11 11 10 9 9 9 9 9 9 10 10 12 14 14 13 13 13 15 17 14 8 6 5 5 5 8 10 9 8 8 7 6 7 8 9 8 9 9 9 9 8 8 8 8 9 9 10
15 14 14 15 16 14 14 16 17 18 20 20 18 13 11 11 9 9 9 8 7 8 8 8 9 9 9 9 9 8 8 8 8 8 8 8 9 10 10 11 10 9 9 8 9 9 9 10 11 13 15 15 15 13 11 16 18 11 6 6 4 3 5 9 10 7 7 9 8 7 8 9 10 10 10 9 8 8 9 9 9 9 10 10 10
15 15 14 14 17 16 14 15 15 17 18 16 16 14 13 12 12 12 12 10 9 8 8 8 9 8 8 9 8 7 7 7 6 7 7 7 8 9 10 9 9 9 9 8 8 9 9 11 12 14 16 16 16 14 12 17 17 9 7 6 0 2 9 12 8 5 7 8 8 8 9 9 10 10 10 9 8 8 9 9 10 10 10 10 10
16 17 15 12 16 19 17 15 15 15 15 14 16 16 14 13 13 13 12 11 11 9 9 8 7 7 7 8 7 6 7 6 6 6 7 7 7 9 9 8 8 8 9 9 9 10 10 11 12 14 16 16 17 14 12 16 14 7 8 5 2 6 14 12 7 7 7 6 7 8 8 8 9 10 10 9 8 9 10 10 10 11 11 11 11
17 18 17 13 15 19 18 16 15 14 14 14 16 16 14 14 13 13 12 11 11 10 8 8 8 8 7 7 7 7 8 7 7 7 7 7 8 9 9 8 8 8 9 9 9 10 11 11 12 14 15 17 17 13 12 15 13 8 8 4 1 11 14 8 9 10 7 6 7 7 7 7 8 10 10 9 8 9 10 11 11 11 12 12 12
17 17 17 15 14 17 17 15 13 13 14 15 16 15 13 13 13 14 15 13 12 11 8 8 8 8 8 8 8 8 9 9 8 8 7 7 7 9 9 8 8 9 10 9 9 10 11 12 14 15 16 16 15 12 12 17 17 12 9 6 6 12 11 7 9 11 9 8 7 7 7 8 8 9 9 9 9 9 9 10 11 12 12 13 14
15 15 15 16 16 17 16 14 13 14 15 15 15 14 15 15 15 18 18 15 14 12 9 8 8 7 8 9 8 8 7 8 8 8 8 8 7 8 9 9 9 9 10 10 10 11 12 13 15 15 15 15 13 11 12 16 18 15 11 8 10 12 10 8 9 10 9 8 7 10 11 9 8 6 6 7 8 8 8 9 11 12 13 14 15
15 14 14 15 17 18 16 14 15 17 17 15 15 16 17 17 18 19 19 17 16 14 12 10 9 9 9 9 9 9 9 9 9 9 9 8 8 7 8 8 8 9 10 10 11 11 12 14 15 14 14 13 12 13 13 13 16 17 12 9 10 12 11 9 10 11 10 9 9 10 11 10 9 6 5 6 7 7 8 8 10 11 13 14 14
Wind_Direction
151 148 147 148 146 147 145 141 141 139 138 134 132 133 140 146 147 147 146 145 143 141 139 139 139 138 137 138 139 140 138 136 135 134 134 133 131 130 129 128 127 125 123 121 120 119 117 116 116 112 108 108 106 101 99 99 99 97 96 95 98 102 102 97 91 86 89 95 96 96 97 96 93 89 84 82 81 79 85 90 89 89 89 89 89
147 145 143 145 145 147 144 141 141 140 139 134 133 132 137 144 144 144 145 143 140 139 139 139 139 138 136 138 140 139 137 136 136 135 135 132 131 131 131 130 128 127 124 123 121 120 120 118 117 114 110 109 107 104 99 97 98 99 98 98 99 103 106 104 99 92 89 94 96 93 95 95 91 89 85 83 81 78 80 84 86 87 89 90 88
140 141 138 143 145 145 142 141 141 140 139 135 134 134 135 142 144 142 143 143 140 140 140 139 138 137 136 138 139 137 136 135 135 134 134 131 129 131 132 131 130 128 126 125 123 122 121 120 119 116 113 111 109 105 102 97 96 99 101 101 101 107 115 114 107 101 93 93 94 93 93 90 87 86 84 82 84 83 78 79 82 85 88 88 86
137 136 135 140 142 142 140 139 140 139 141 137 135 135 136 139 143 142 143 144 142 141 139 138 137 138 140 139 137 135 135 135 135 135 134 132 131 131 131 132 131 129 128 126 125 123 121 121 120 118 116 113 109 105 102 98 95 95 100 101 100 107 117 118 114 110 101 99 97 97 98 93 89 86 85 85 90 90 82 79 80 82 84 83 83
135 134 134 136 136 139 139 137 137 137 140 140 137 136 138 138 142 143 144 145 144 142 139 140 141 142 141 138 137 136 137 136 135 135 135 134 133 131 130 131 131 129 129 128 127 125 122 121 119 118 118 116 111 106 102 97 93 90 95 102 104 110 119 121 122 118 110 105 97 96 102 102 95 89 88 88 86 85 84 83 82 81 80 79 79
134 133 133 135 134 136 138 136 134 134 136 140 141 139 138 138 140 142 144 143 141 140 139 142 143 141 138 137 137 136 138 137 137 137 136 134 133 132 131 131 131 130 130 128 127 126 123 122 120 118 119 118 113 110 105 95 90 87 92 101 107 113 117 119 120 124 121 108 94 95 103 104 102 93 88 88 82 82 87 89 88 86 84 81 77
134 134 134 135 134 136 138 136 133 132 131 135 141 141 139 138 140 141 142 142 139 138 139 139 137 136 135 136 137 137 138 136 138 139 136 133 134 134 132 133 133 132 131 129 127 127 125 123 122 121 120 119 117 115 111 101 94 90 92 101 108 112 115 115 112 117 117 103 92 98 102 103 105 100 93 90 86 87 92 89 83 84 91 87 79
135 136 135 136 137 140 140 138 136 133 131 132 136 139 140 139 140 142 141 143 143 141 140 139 138 138 138 140 141 141 139 136 139 140 137 135 136 136 135 135 135 134 133 132 131 130 127 124 123 123 123 121 121 119 117 110 103 96 93 101 109 112 115 116 114 112 105 94 91 97 99 100 103 102 96 91 91 88 86 82 75 74 85 85 81
138 138 137 137 141 145 144 143 140 136 135 134 134 134 138 142 141 142 142 143 144 142 143 144 143 143 142 145 145 146 144 140 141 141 139 138 139 139 139 137 137 137 135 133 132 131 128 127 126 124 124 125 125 124 122 117 111 106 95 100 109 111 114 116 116 109 96 92 92 94 96 97 96 99 97 93 93 87 82 82 74 70 77 79 81
140 141 140 139 146 149 148 146 143 140 138 136 134 132 136 143 143 143 142 142 143 144 145 145 145 145 145 148 151 152 149 144 143 143 141 141 142 142 140 140 141 140 137 135 133 132 131 130 128 128 128 129 130 126 121 117 115 115 103 100 107 110 116 119 113 104 95 93 91 91 94 93 91 95 99 94 90 85 82 84 81 76 77 78 80
141 142 140 140 147 150 149 148 146 144 141 138 135 135 139 141 141 142 142 142 145 146 145 145 146 147 147 149 151 152 147 144 146 146 145 144 143 143 142 141 141 141 139 138 139 138 136 132 131 135 135 133 129 121 119 120 122 125 115 104 105 110 117 119 110 101 97 94 93 94 90 89 91 94 96 92 87 84 81 82 83 81 79 80 80
142 139 137 140 147 150 150 149 148 146 142 138 136 138 140 139 139 139 142 146 148 147 146 147 148 149 150 149 149 148 146 148 152 149 148 146 141 142 144 143 142 144 144 143 144 142 139 135 137 139 137 132 124 118 119 120 122 124 121 111 106 110 117 116 108 102 100 97 96 95 88 87 91 93 92 92 90 86 83 81 82 83 82 82 80
141 137 138 141 147 151 150 150 148 146 142 138 137 139 141 142 142 142 145 148 149 148 146 148 152 153 152 151 149 150 152 154 155 153 151 147 141 141 143 147 148 147 147 148 148 144 141 139 139 139 136 130 121 119 122 120 117 119 120 115 109 111 115 113 109 105 103 102 97 93 91 89 92 94 92 91 89 84 81 80 79 79 78 77 77
141 140 140 142 147 150 150 149 146 145 143 140 142 146 147 149 149 148 149 149 149 147 146 150 156 157 155 154 153 155 158 157 155 156 157 152 146 141 138 145 153 153 149 150 151 146 142 139 138 140 139 131 123 122 126 123 116 115 118 116 112 110 111 111 110 107 105 105 99 94 91 90 93 93 89 87 86 82 82 81 80 79 78 76 76
143 143 142 142 145 148 150 149 147 145 144 146 149 154 156 155 154 153 153 154 154 151 150 152 153 156 157 156 157 158 159 160 159 158 160 158 151 144 136 138 148 154 151 149 149 148 145 141 142 142 138 131 125 126 130 127 117 115 117 116 113 108 109 113 111 108 107 105 101 97 93 95 98 94 89 88 88 85 84 83 82 81 80 80 79
145 144 141 142 145 148 150 149 149 148 148 150 153 156 156 155 154 154 156 158 160 158 156 155 153 155 158 157 157 158 158 160 160 158 160 159 156 151 142 137 139 145 148 148 149 149 147 145 145 141 135 131 127 128 132 131 122 117 117 116 113 107 106 112 114 109 108 106 102 98 93 94 95 92 90 89 88 83 82 84 84 83 82 82 82
145 143 141 145 148 149 151 152 153 153 154 154 154 155 155 154 153 155 156 156 158 157 156 157 155 156 160 160 158 158 158 159 159 158 158 156 155 150 143 141 140 142 145 149 150 149 149 146 144 141 134 130 130 131 135 134 127 120 118 116 112 106 102 107 112 108 107 107 104 99 97 100 97 92 89 88 86 82 81 81 82 83 82 83 82
147 147 146 148 150 153 157 158 157 157 157 155 155 156 155 155 156 156 154 151 151 151 152 154 155 157 160 161 161 161 160 159 158 157 155 151 149 145 142 141 142 145 149 150 148 148 149 147 142 141 136 132 131 134 138 137 132 125 120 118 113 106 101 104 108 105 104 104 104 101 102 109 105 97 92 88 85 81 79 79 81 82 83 85 84
150 152 152 153 155 159 163 162 160 160 159 157 156 158 159 158 158 157 153 150 149 150 153 154 154 155 158 160 161 162 162 162 159 156 152 148 144 143 142 139 140 146 150 149 147 147 149 148 144 142 138 133 131 135 140 139 137 131 124 122 115 106 100 103 108 104 101 100 102 103 106 109 103 98 94 89 87 85 85 85 83 82 82 83 84
154 156 157 157 160 163 163 164 163 163 162 161 159 160 163 162 160 157 154 152 150 153 155 154 152 153 157 157 158 159 159 159 156 153 150 147 144 142 142 138 137 142 145 148 149 148 150 150 146 143 139 134 132 135 140 141 140 136 130 127 117 107 104 109 112 103 99 100 101 104 108 109 103 100 96 92 90 85 85 89 85 84 87 86 85
159 162 162 161 163 165 165 166 166 166 166 166 162 163 166 164 161 158 154 154 154 156 155 153 152 154 156 155 156 155 151 150 149 150 148 146 144 142 143 138 134 137 142 148 151 151 152 152 149 145 142 138 133 133 139 142 142 141 136 128 120 112 110 115 112 104 100 99 101 103 100 98 99 97 90 89 90 86 83 85 85 86 89 88 87
164 168 169 168 169 170 170 169 168 169 170 168 165 164 167 164 162 161 158 156 157 158 157 154 155 156 155 153 153 150 147 146 147 148 147 145 143 142 142 137 132 135 139 144 150 151 151 150 149 148 146 143 138 134 141 144 145 147 140 129 123 118 114 116 112 105 102 98 102 104 96 94 98 94 84 80 84 89 90 86 85 84 86 87 88
169 173 175 177 175 174 174 172 172 172 171 170 168 166 167 166 165 166 162 160 159 159 160 160 159 159 157 155 152 149 148 146 145 146 145 143 146 147 141 135 131 130 134 141 150 155 153 149 147 148 148 147 142 138 142 146 150 152 145 135 128 120 117 116 112 105 102 99 103 106 98 97 99 95 85 76 74 81 90 93 91 89 88 89 89
173 175 180 183 181 178 177 174 173 173 172 172 171 169 168 168 168 169 165 163 162 161 164 164 163 163 162 160 155 151 148 143 142 143 144 145 148 149 141 134 131 129 133 138 147 156 157 156 152 150 150 149 145 143 144 144 147 153 151 143 130 122 120 117 113 109 105 101 103 105 100 101 104 100 88 77 73 70 77 88 90 90 87 84 84
174 177 181 184 183 180 178 176 175 176 175 173 173 172 170 170 170 172 168 166 166 163 164 165 165 166 166 164 158 153 150 147 148 147 148 151 148 144 137 134 133 132 132 133 139 148 154 159 157 152 152 152 150 149 149 146 145 152 152 143 132 127 124 118 115 112 109 104 104 105 106 110 108 101 87 77 75 68 69 75 82 89 86 82 81
177 180 180 183 184 182 180 179 179 181 179 174 174 173 171 171 172 173 170 169 169 165 164 165 165 166 168 168 162 156 153 151 152 150 148 150 146 141 139 137 136 133 129 127 130 138 147 152 153 154 154 155 152 150 153 153 150 152 149 140 135 131 126 121 117 114 110 107 104 101 110 113 91 97 91 75 72 70 69 73 79 85 84 85 83
179 181 181 182 185 185 183 182 182 182 180 177 174 174 174 174 174 173 172 171 169 166 164 165 164 165 166 166 161 158 157 155 153 150 145 145 147 145 143 140 137 132 125 121 121 128 138 144 150 154 155 153 147 144 151 156 153 151 147 140 139 135 130 125 120 116 110 109 109 105 109 95 69 91 90 74 74 76 75 74 77 84 83 85 84
177 181 185 185 185 187 185 185 185 182 181 179 175 175 176 174 174 175 173 171 169 167 165 162 162 164 163 162 159 157 157 156 151 148 146 146 149 148 147 143 136 130 122 119 118 122 128 136 146 152 154 150 140 138 146 153 153 150 147 143 142 140 137 131 125 118 111 109 114 116 111 89 84 93 84 74 82 85 83 76 73 81 88 88 84
175 179 187 189 188 188 187 187 185 183 182 179 177 176 176 174 175 176 172 172 170 165 164 162 161 162 162 163 162 160 159 157 151 148 150 150 151 150 147 143 135 130 125 120 119 122 125 130 140 150 154 149 139 135 142 150 152 151 152 149 146 148 145 136 128 121 117 113 112 114 106 95 97 95 85 80 89 90 87 79 73 77 83 85 84
177 178 181 189 192 188 187 186 182 182 182 179 178 175 172 175 176 176 174 173 169 163 164 162 161 162 163 164 165 166 164 160 155 150 154 155 153 152 149 144 137 132 127 122 121 124 128 131 136 145 152 152 143 137 142 148 152 156 156 153 155 156 148 138 131 125 123 120 115 114 106 98 93 92 88 84 88 89 89 81 73 78 83 82 85
180 182 180 184 190 190 185 183 184 183 182 178 177 174 173 177 179 176 174 171 165 166 168 159 156 160 164 167 167 167 165 160 157 155 158 157 155 155 153 145 138 134 131 124 125 129 132 134 136 141 148 153 148 142 146 149 154 160 160 161 165 158 145 137 133 129 127 128 124 117 111 104 94 92 91 86 85 89 94 88 78 82 87 87 90
183 184 183 178 183 190 187 183 187 186 185 183 178 178 177 178 181 176 174 172 165 167 168 158 156 160 164 168 168 170 168 159 156 157 159 157 156 158 154 146 140 139 140 133 132 138 138 137 136 138 144 150 148 146 150 151 155 161 161 164 158 140 138 140 135 134 131 129 125 117 111 107 99 97 95 91 96 99 102 100 91 90 93 93 92
190 186 184 176 176 188 192 187 190 191 190 186 178 180 180 178 180 178 178 180 177 176 173 166 163 165 168 170 173 182 177 161 154 157 157 158 160 161 156 150 149 150 153 150 146 146 144 143 139 139 147 152 149 149 153 155 155 154 153 154 144 129 133 139 140 141 137 127 119 114 112 110 105 105 101 100 111 115 111 108 104 103 101 95 86
191 186 186 180 170 184 195 190 191 195 193 188 179 179 180 177 181 181 179 183 191 188 179 173 170 173 176 174 176 182 180 169 163 160 159 164 167 167 164 160 161 168 170 166 159 152 149 147 144 146 153 154 150 152 154 148 139 134 135 144 149 144 138 142 146 146 146 140 134 128 122 119 112 108 104 98 102 112 113 104 97 92 83 70 56
190 182 186 191 178 178 190 190 191 193 188 188 183 177 178 178 182 183 180 185 193 186 176 174 177 179 180 179 171 167 184 189 177 166 164 171 174 172 173 178 188 192 183 176 167 157 154 152 149 153 154 149 145 146 143 133 124 129 141 148 151 149 143 145 149 150 152 148 144 140 132 132 133 125 114 98 80 84 89 82 74 69 62 54 48
194 185 185 195 193 184 187 187 193 196 186 186 183 176 179 182 183 185 187 190 187 180 177 179 180 179 180 177 159 161 200 201 180 172 171 174 177 175 177 195 206 199 188 179 166 158 160 158 155 160 156 146 145 142 134 128 124 134 147 151 151 152 146 141 147 152 153 147 139 137 136 136 136 133 122 105 85 73 69 62 59 63 64 56 57
199 194 187 189 192 194 195 189 197 203 189 184 183 178 182 184 186 190 195 194 183 180 181 181 182 181 180 169 153 182 207 194 176 173 173 177 178 178 184 192 198 193 186 177 167 161 163 164 161 164 160 148 148 143 134 129 126 134 143 144 147 150 139 135 146 150 146 142 139 138 136 133 126 122 116 106 91 74 64 57 55 58 59 55 58
199 198 196 191 187 192 198 196 199 201 187 182 182 182 185 185 189 193 196 192 184 181 179 181 188 187 185 179 178 197 199 182 177 172 176 184 178 180 184 184 187 188 183 175 172 165 164 173 170 165 161 151 151 147 140 132 126 131 135 136 143 142 130 131 142 145 142 138 138 139 133 132 126 115 110 104 95 84 73 66 64 60 58 56 58
196 197 201 200 191 189 194 197 200 198 189 182 178 180 184 184 188 190 192 189 183 182 181 183 191 191 194 193 190 195 192 186 184 178 181 182 176 180 181 181 184 185 181 174 173 171 166 176 176 162 150 151 155 147 139 131 125 127 129 129 129 126 127 133 137 136 135 131 131 135 129 125 121 109 104 101 95 93 82 76 80 78 70 66 65
195 191 194 195 189 191 197 200 203 199 190 181 172 172 177 182 186 185 185 185 184 185 183 186 193 195 199 196 192 195 196 194 191 187 185 180 178 180 180 185 186 181 181 174 172 174 169 171 170 155 143 145 151 141 135 129 119 115 117 118 115 115 121 124 127 127 131 134 131 131 127 119 114 102 94 93 97 101 93 84 86 81 76 73 70
194 187 185 187 186 193 201 203 205 202 192 182 173 171 175 183 187 183 180 182 185 185 183 190 195 199 202 198 197 197 195 195 196 193 188 185 184 181 183 190 190 180 177 174 171 173 173 168 158 152 150 149 148 143 142 134 118 111 108 105 101 101 107 107 108 111 119 128 122 125 129 121 110 97 95 97 99 98 93 91 89 80 74 73 69
191 190 184 185 188 194 201 202 201 200 194 186 177 177 180 182 186 184 180 180 185 184 187 193 195 202 205 201 197 194 194 195 194 195 193 196 193 186 189 194 192 180 173 170 170 173 174 170 158 154 155 154 150 147 149 145 130 123 118 109 100 95 96 92 88 91 101 110 114 118 119 117 109 100 98 98 98 94 89 87 87 81 75 76 77
187 190 187 182 184 189 195 199 198 195 194 191 184 183 184 183 184 183 180 178 183 186 188 192 196 203 202 195 193 191 194 194 190 193 197 203 201 195 194 193 191 184 175 170 171 176 175 175 167 157 153 153 150 152 158 155 140 135 131 123 121 111 102 93 81 79 91 99 102 107 105 108 109 105 100 94 96 96 87 83 86 87 85 83 81
181 187 188 182 184 186 186 193 196 192 193 195 191 184 178 179 177 175 176 175 179 182 182 189 197 201 197 192 191 191 196 194 187 189 193 195 198 200 198 192 189 187 181 175 174 177 178 179 175 164 156 151 153 159 166 160 147 143 139 125 140 147 125 111 94 77 84 91 88 93 97 103 105 104 100 94 96 93 83 86 88 87 87 84 81
174 181 183 183 187 185 180 185 192 191 191 194 192 182 172 173 165 160 167 168 173 177 178 188 194 195 196 193 190 190 194 191 184 184 185 189 192 194 194 191 190 190 184 181 179 181 183 184 180 175 167 158 158 162 161 160 157 153 145 129 143 157 137 136 121 90 85 86 82 91 96 101 103 101 98 93 89 84 80 85 85 83 83 82 84
173 179 180 178 183 185 182 179 182 187 191 194 191 186 178 173 166 163 169 171 175 181 184 187 188 187 193 193 189 185 182 178 176 175 178 191 195 187 189 194 194 192 188 184 183 184 186 189 189 186 180 168 163 162 161 168 168 163 158 154 205 157 148 152 145 109 101 90 79 87 92 98 101 98 95 87 78 78 83 86 82 82 82 83 89
174 180 180 173 179 187 188 182 183 189 191 190 186 183 178 175 173 173 175 175 175 178 182 181 181 182 183 184 182 172 167 168 170 173 178 189 190 185 190 196 192 192 191 185 185 187 187 191 194 193 189 180 171 165 162 170 176 181 180 188 309 155 153 155 153 143 131 105 85 85 88 97 100 96 90 79 74 80 87 90 87 86 88 89 93
174 177 179 176 176 183 189 189 190 191 187 182 179 177 176 175 176 176 176 176 173 168 170 172 172 173 171 169 171 167 167 171 173 175 179 182 183 185 190 191 188 189 189 186 185 187 187 189 195 200 199 190 180 168 156 168 184 196 191 201 187 159 156 149 149 148 143 131 116 98 91 95 97 96 91 82 80 86 90 94 96 95 97 97 98
172 174 182 186 179 180 185 185 183 182 181 179 177 178 179 176 176 178 176 175 173 165 160 164 163 162 164 163 165 167 166 167 168 169 172 173 176 183 186 184 184 184 187 189 187 188 190 192 197 202 204 200 189 175 169 180 191 195 189 179 148 155 154 135 139 139 136 144 141 130 122 112 103 92 86 86 88 94 98 100 103 104 104 104 105
167 167 180 189 184 181 180 174 174 179 181 179 177 179 181 180 181 181 177 173 172 168 157 157 160 157 159 158 159 160 158 158 156 157 161 164 166 174 180 180 180 184 189 194 194 192 193 194 197 200 207 210 204 197 197 198 199 199 197 183 156 156 157 146 146 141 136 141 141 144 145 135 121 100 84 92 98 103 107 108 110 112 112 112 112
161 160 174 185 184 183 179 172 177 182 181 180 180 181 183 185 185 182 178 174 172 169 160 157 159 157 156 154 153 152 150 150 150 150 152 153 157 162 170 177 181 186 190 194 195 193 193 194 196 199 205 210 210 212 217 217 212 208 208 199 177 173 175 170 166 158 147 142 140 145 149 139 128 119 111 110 109 113 115 116 120 121 122 121 119
Height
785 787 788 790 791 793 794 794 795 796 798 800 801 803 804 806 807 808 809 810 811 813 814 815 816 817 818 820 820 822 823 823 824 824 825 826 827 828 828 829 830 831 831 832 832 833 834 834 835 835 835 836 836 835 835 835 835 835 835 834 834 835 835 835 834 834 834 834 835 835 835 836 836 836 836 836 836 836 837 837 837 837 837 837 837
784 787 789 790 791 793 794 794 796 797 799 800 802 804 806 807 809 809 810 812 813 814 815 816 817 818 819 820 821 822 823 824 825 825 826 827 827 828 829 830 831 832 832 833 833 834 835 835 836 836 837 837 837 837 837 836 836 836 836 836 836 836 836 836 836 836 836 836 836 837 837 837 838 838 838 838 838 838 838 839 839 839 839 839 839
785 788 790 791 792 794 794 795 797 798 800 801 804 805 807 808 810 811 812 813 814 815 816 817 818 819 820 821 822 823 824 825 825 826 827 827 828 828 829 831 831 832 833 834 834 836 836 837 837 838 838 838 838 838 838 838 837 837 837 837 837 837 836 836 837 837 837 837 837 838 839 839 839 840 840 840 840 840 840 841 841 841 841 841 841
786 788 791 793 794 794 794 796 798 800 801 803 805 806 808 810 811 812 813 814 815 816 817 818 819 820 821 822 823 824 825 826 826 827 828 828 829 829 830 831 832 833 834 835 835 836 837 838 838 839 839 839 839 839 839 839 838 838 838 838 838 838 838 837 838 838 839 839 839 840 841 841 842 842 842 842 842 842 842 842 842 842 842 842 842
787 789 792 794 795 795 795 797 799 801 802 803 805 807 809 811 812 813 814 815 816 817 818 819 819 820 821 822 824 825 826 827 827 828 828 829 829 830 830 832 832 834 834 835 836 837 838 839 839 840 840 840 841 840 840 840 840 840 840 840 839 839 839 839 839 839 840 840 840 841 842 843 843 844 844 844 843 844 844 844 844 844 844 844 844
787 790 792 795 797 796 797 798 800 801 803 804 806 808 810 812 813 814 815 816 817 818 819 820 820 821 822 823 825 826 827 828 828 829 829 829 830 830 831 832 833 834 835 836 837 838 838 839 840 840 841 841 842 841 841 841 841 841 841 841 841 840 840 840 840 840 841 841 842 843 844 845 845 846 845 845 845 845 845 845 846 846 846 846 846
788 791 793 796 797 798 798 799 801 802 803 805 807 809 811 812 814 815 816 817 818 818 819 820 821 822 823 824 826 827 827 828 829 830 830 830 831 832 832 833 834 835 836 837 838 839 839 840 840 841 842 842 842 842 843 842 842 842 842 842 842 842 841 841 841 841 842 843 844 845 846 846 847 847 847 847 847 847 847 847 847 847 847 847 847
790 792 794 796 798 799 799 800 802 802 804 806 807 809 811 813 814 816 817 818 818 819 820 821 822 823 824 825 826 827 828 829 830 831 831 832 832 833 833 834 835 836 836 837 839 839 840 841 841 842 842 843 843 843 843 843 843 844 844 844 844 843 843 842 842 842 843 844 845 847 848 848 849 848 849 848 848 848 848 848 848 848 848 848 848
791 792 794 796 798 800 800 801 802 803 805 806 808 810 812 814 815 816 817 818 819 820 821 822 823 824 825 826 827 828 829 830 831 832 832 832 833 833 834 835 836 836 837 838 839 840 840 841 842 843 843 843 844 844 844 844 844 844 845 845 845 844 844 843 843 844 844 845 847 848 849 850 850 850 850 850 849 849 849 849 849 849 849 849 849
791 793 795 797 799 800 801 802 803 804 805 807 809 811 813 814 816 817 818 819 820 821 822 823 824 824 826 827 828 829 830 831 832 833 833 833 834 834 835 836 836 837 838 839 839 840 841 841 842 843 844 844 844 844 844 845 845 845 846 846 846 846 845 845 845 845 846 847 848 849 850 851 851 851 852 851 851 851 850 850 850 851 851 851 850
792 794 796 798 800 801 802 803 804 805 806 808 810 812 814 815 817 818 818 819 820 821 822 824 824 825 826 827 828 829 831 832 833 833 834 834 835 835 836 836 837 838 839 839 840 840 841 841 842 843 843 844 844 845 845 845 846 846 846 847 847 847 846 846 846 847 847 848 849 851 851 852 852 853 853 852 852 852 852 852 852 852 852 852 852
794 796 797 800 801 802 803 804 805 806 807 808 811 813 815 816 817 818 819 820 821 822 823 824 825 826 827 828 829 830 831 832 834 834 835 835 836 836 837 838 838 839 840 840 840 840 841 842 842 843 843 844 844 845 846 846 846 847 847 848 848 848 847 847 848 848 848 849 851 852 853 854 854 854 854 854 854 853 853 853 853 853 853 853 853
795 797 799 801 803 804 804 805 806 807 808 810 812 814 815 817 817 818 819 820 821 822 823 825 826 827 828 828 830 831 832 833 834 835 836 836 837 838 838 839 839 840 840 841 841 841 841 842 843 843 844 845 845 845 846 846 846 847 848 849 849 849 848 848 849 849 849 851 852 853 854 855 856 856 856 856 855 855 854 854 854 855 855 855 854
796 798 799 801 804 805 805 806 807 808 809 811 813 814 815 816 817 819 819 821 822 823 824 825 826 827 828 829 831 832 833 834 835 836 837 838 838 839 839 840 840 841 841 842 842 842 842 843 843 844 844 845 846 846 846 846 847 848 849 849 850 850 850 849 850 850 850 851 853 855 856 857 857 858 857 857 857 856 856 856 856 856 856 856 856
795 798 800 802 804 806 806 807 808 809 810 812 813 814 815 816 818 819 820 821 822 823 824 825 827 828 829 830 831 833 834 835 836 837 838 839 839 840 840 841 841 842 843 843 843 843 843 843 844 844 845 846 846 847 847 847 847 848 849 850 851 851 851 851 852 851 852 853 854 856 857 858 858 859 858 858 858 858 857 857 857 857 857 857 857
796 797 800 802 804 806 807 808 809 810 811 812 813 814 815 816 818 819 820 821 822 823 825 826 827 829 830 831 832 834 835 836 837 838 839 840 840 841 841 842 842 843 844 844 845 845 844 844 844 845 846 846 847 847 848 848 848 849 850 851 852 852 852 852 853 853 853 854 855 857 858 859 859 860 859 859 859 859 859 858 858 858 858 858 858
797 798 800 802 804 806 807 808 809 810 811 812 813 814 816 817 818 819 820 821 823 824 825 827 828 829 830 831 833 834 835 837 838 839 840 841 841 841 842 842 843 844 844 845 846 846 846 846 846 846 846 847 848 848 848 849 849 850 851 852 852 853 853 853 854 854 854 855 856 858 859 860 860 861 861 860 860 860 860 859 859 859 859 859 859
798 799 800 801 803 805 806 807 809 810 811 813 814 815 816 818 819 819 821 822 823 824 826 827 828 829 830 831 833 834 836 837 838 839 840 841 841 842 843 843 844 845 845 845 846 847 847 847 847 847 847 848 849 849 849 850 850 851 852 853 853 854 853 854 855 856 856 856 857 859 860 860 861 861 862 861 861 861 861 861 861 861 861 861 861
798 799 799 800 802 804 806 808 810 811 812 814 815 816 817 818 819 820 821 822 824 825 826 827 828 830 830 831 833 834 836 837 838 839 840 841 842 842 843 844 845 846 846 846 847 847 848 848 848 848 848 849 849 850 850 851 851 852 852 854 854 855 855 855 857 857 858 858 858 860 860 861 861 862 862 862 862 862 862 863 863 862 862 862 862
798 799 800 801 802 805 807 809 810 812 813 814 815 817 818 819 820 821 822 823 824 825 826 828 829 830 831 832 833 834 836 837 838 839 840 841 842 843 844 845 846 846 847 847 847 848 848 849 849 849 849 850 850 851 851 852 852 853 853 854 855 855 856 857 858 859 859 860 860 861 861 862 862 862 863 863 863 863 863 864 864 864 863 863 863
798 799 800 802 804 806 807 809 810 812 813 814 816 817 819 820 821 822 823 824 824 826 827 828 829 830 831 832 833 834 836 837 839 840 841 842 843 843 844 845 846 847 847 847 848 848 849 849 850 850 850 851 851 852 852 853 854 854 855 855 856 857 857 858 859 860 861 861 862 862 862 863 863 863 863 863 863 864 864 864 865 865 864 864 864
798 799 801 801 803 804 806 807 809 810 812 814 815 817 819 821 822 823 823 824 825 826 827 829 829 830 832 832 834 835 836 837 839 840 841 843 843 844 845 846 847 847 847 847 848 848 849 850 850 850 851 851 852 852 853 854 855 856 856 856 857 858 858 859 860 861 862 863 863 863 864 864 864 864 864 864 864 864 865 865 865 865 865 865 865
797 798 800 800 801 802 804 805 806 809 811 813 815 816 819 820 822 823 823 824 825 826 827 829 830 831 832 833 834 835 836 838 839 841 842 843 844 844 845 846 847 847 847 847 848 848 849 851 851 851 851 852 853 853 854 855 856 857 857 858 858 858 859 860 861 862 863 864 864 864 865 865 866 866 865 865 864 865 865 866 866 866 866 866 866
795 797 799 800 801 802 803 805 806 808 810 812 814 815 818 819 821 822 823 824 825 826 827 828 830 831 832 833 834 835 837 838 840 841 842 843 844 845 845 846 847 848 848 847 848 848 849 851 852 852 852 852 853 854 854 856 857 858 859 859 859 859 860 861 862 863 864 865 865 865 866 866 867 867 866 866 865 865 865 866 866 867 867 867 867
795 797 798 800 801 803 804 805 807 808 809 811 812 814 817 819 820 822 823 824 825 826 827 828 830 831 832 833 835 836 837 838 839 841 842 843 844 845 845 846 847 848 848 847 848 849 849 851 852 852 852 853 853 854 855 856 857 858 859 859 860 860 861 862 863 864 865 866 866 866 867 867 867 867 867 867 866 866 866 866 867 867 868 868 868
797 798 799 800 802 803 804 806 807 808 810 811 812 814 816 818 820 821 823 824 825 825 827 828 829 831 832 833 835 836 837 838 840 841 842 843 844 845 845 846 847 848 848 848 848 849 849 851 851 852 853 853 853 854 855 857 858 859 859 860 860 861 862 863 864 865 865 866 867 867 867 868 868 868 868 868 867 867 867 867 867 867 868 868 868
797 799 799 800 801 803 805 806 807 809 811 812 813 815 816 818 820 821 822 823 824 825 826 828 829 831 832 833 835 836 838 839 840 841 843 844 844 845 845 846 847 848 848 848 848 849 850 850 851 852 853 853 854 854 856 857 858 859 860 860 861 862 863 864 864 865 866 867 867 868 868 868 869 869 869 869 868 868 868 868 868 868 868 868 869
797 799 800 800 802 803 804 806 808 810 812 813 814 816 817 819 820 821 822 823 824 825 826 828 829 831 832 833 835 837 838 839 841 842 843 844 845 845 845 846 847 848 848 849 849 849 850 851 852 852 853 854 854 855 856 857 858 859 860 861 862 863 863 864 865 866 867 867 868 868 869 869 869 869 870 870 870 870 869 869 868 868 868 869 869
796 798 800 800 802 804 805 806 808 810 812 814 815 816 818 820 821 822 822 823 824 826 827 829 830 831 832 833 835 837 838 839 841 842 843 844 845 845 845 846 847 848 849 849 850 850 851 851 852 853 853 854 855 856 857 858 859 860 860 861 863 863 864 865 865 866 867 868 868 869 869 870 870 870 871 871 871 871 870 869 869 869 869 869 869
796 798 799 800 801 803 805 806 808 810 812 814 816 817 819 820 821 822 823 823 824 826 827 829 830 831 833 834 835 837 838 839 840 842 843 844 845 845 846 847 847 848 849 849 850 850 851 852 852 853 853 854 855 856 857 858 859 860 861 862 864 864 865 866 867 867 868 868 869 869 870 870 871 871 872 872 872 872 871 870 869 869 869 870 870
795 797 798 799 800 803 804 805 807 810 812 814 815 816 816 818 820 821 824 825 825 826 827 829 831 832 833 834 836 837 838 839 840 842 843 844 845 846 846 847 847 848 849 849 850 850 851 852 852 853 853 854 855 857 857 858 859 861 862 863 864 865 866 867 868 868 869 869 870 870 870 871 871 872 872 873 873 872 872 871 870 870 870 871 871
794 796 797 798 799 801 803 805 807 809 811 812 813 814 815 817 819 821 824 826 826 826 828 830 831 832 833 835 837 837 838 839 840 842 843 844 845 846 846 847 847 848 849 850 850 851 851 852 852 852 853 854 855 857 857 858 859 861 863 864 865 866 867 868 868 869 869 870 870 871 871 871 872 873 873 873 873 873 872 872 872 872 872 872 872
794 795 797 798 798 800 803 804 806 808 809 810 812 815 816 817 819 822 824 826 827 827 829 831 831 832 833 835 836 837 838 839 840 842 843 844 845 846 846 846 847 848 849 850 850 851 851 851 852 852 853 854 855 856 857 859 860 862 864 865 865 866 867 868 869 869 870 871 871 872 872 873 873 873 874 874 874 873 873 872 872 873 873 873 873
794 795 796 798 798 799 802 804 805 807 809 810 812 814 816 817 820 822 824 825 827 828 829 830 830 832 833 834 835 837 839 840 840 841 842 843 844 845 846 846 847 848 849 849 850 850 851 851 852 852 853 855 855 856 857 859 861 863 864 865 866 866 867 869 870 870 871 871 872 872 873 873 874 874 875 874 874 874 873 873 873 873 873 873 874
793 794 795 797 798 799 801 803 805 807 809 811 813 814 816 819 820 823 824 826 828 829 829 829 830 831 833 834 834 836 840 841 841 841 842 843 844 845 846 846 847 848 848 849 850 850 850 851 851 852 853 855 856 857 858 860 862 863 864 866 868 868 868 869 870 871 871 872 872 873 873 874 874 875 875 875 875 874 874 874 874 874 874 874 875
793 794 796 797 798 799 801 803 804 806 808 811 813 815 817 819 819 822 825 827 828 829 829 829 831 831 832 834 834 836 839 840 841 841 842 843 844 845 845 846 847 847 848 849 849 849 850 850 851 852 853 855 856 857 859 861 862 863 865 866 867 868 868 869 871 871 872 872 873 873 874 874 874 875 875 875 875 874 874 874 874 874 874 874 875
792 794 795 796 798 800 801 803 804 806 807 810 813 815 817 818 819 822 825 826 828 829 829 829 830 831 832 833 833 836 839 839 840 841 842 843 844 844 845 846 846 847 848 848 849 849 849 850 851 852 853 854 856 857 859 861 862 863 865 866 867 869 869 869 871 872 872 872 873 874 874 874 875 875 875 875 874 874 874 874 874 875 875 875 875
792 794 795 796 798 800 801 803 804 805 807 810 813 816 817 818 820 822 824 826 827 828 828 829 830 831 832 833 834 837 838 839 840 841 841 842 843 844 845 845 846 847 847 848 848 848 849 850 851 852 853 855 856 857 858 860 863 864 865 866 867 869 869 869 871 872 872 873 874 874 874 875 875 875 875 875 874 874 874 874 875 875 875 875 875
791 793 795 796 798 800 801 803 804 805 807 810 813 815 817 819 820 822 824 825 826 827 828 829 830 831 832 834 835 837 838 838 840 840 841 842 843 843 844 845 846 847 847 848 848 848 848 849 851 852 854 855 856 857 858 860 862 864 865 866 868 869 869 870 872 872 873 873 874 874 875 875 875 876 876 875 875 875 874 875 875 876 875 875 875
791 792 794 796 798 799 801 803 804 805 807 809 812 815 817 819 820 822 824 825 825 827 828 829 830 831 832 834 835 836 837 838 839 840 841 841 842 843 844 845 846 846 847 847 848 848 848 849 851 852 854 855 857 858 859 861 862 863 865 867 868 870 870 871 872 873 873 873 874 875 875 875 876 876 876 875 875 875 875 875 875 876 876 875 875
790 792 794 795 797 799 801 802 803 804 806 808 811 813 816 818 819 821 823 824 825 826 828 829 830 831 832 834 835 836 837 838 838 839 840 841 842 843 844 845 845 846 847 847 847 848 848 849 851 853 854 856 857 858 859 861 863 864 865 867 869 870 871 872 872 873 873 874 875 875 876 876 876 876 876 876 876 876 876 876 876 876 876 876 875
789 791 793 795 797 798 800 801 803 804 806 808 810 812 815 817 818 820 822 824 825 826 828 829 830 831 832 833 834 835 836 837 838 839 839 840 841 842 843 844 845 845 846 846 847 847 848 849 851 853 855 856 857 859 859 861 863 864 864 867 869 871 872 872 873 874 874 875 875 876 876 876 876 876 877 877 877 877 877 877 877 876 876 876 876
788 791 793 794 796 798 800 801 802 804 805 807 810 812 814 816 818 820 821 823 825 826 828 829 830 831 832 833 834 835 836 837 838 838 839 840 841 841 842 843 844 845 845 846 846 847 848 849 851 852 854 856 857 859 859 860 861 863 864 865 868 870 873 874 874 875 875 875 876 876 876 877 877 877 877 877 877 877 877 878 878 877 877 877 876
788 790 792 794 796 798 799 801 803 804 805 807 810 812 813 816 818 819 821 823 825 826 827 828 829 831 832 833 834 835 836 836 837 838 839 839 840 841 842 843 844 844 845 845 846 847 847 849 851 852 853 855 856 858 859 859 860 862 862 864 867 868 871 874 874 876 876 876 877 877 877 877 878 878 878 878 878 878 878 878 878 878 878 878 877
787 789 792 793 795 798 799 800 803 804 805 807 809 811 813 815 817 819 821 823 824 826 827 828 829 830 831 832 834 834 835 836 837 838 838 839 839 840 841 842 843 844 844 845 846 846 848 849 850 851 852 853 855 857 858 860 860 861 861 863 866 866 869 872 874 876 877 877 878 878 878 878 878 879 879 879 879 879 879 879 879 879 879 879 878
786 789 791 793 795 797 799 800 803 804 805 807 809 811 813 815 817 819 820 822 824 825 826 828 829 830 831 832 833 834 835 836 836 837 838 838 839 839 840 841 842 843 844 845 846 846 848 849 849 851 852 852 854 856 858 860 861 861 861 862 863 863 865 869 871 875 878 878 879 879 879 879 879 880 880 880 880 880 880 880 880 880 880 880 880
786 788 791 793 794 797 799 800 802 804 806 808 809 811 813 815 816 818 819 821 823 824 826 827 828 829 830 831 832 833 835 836 836 837 838 838 839 839 840 841 842 843 843 844 845 846 848 849 850 850 851 852 854 855 858 860 861 861 861 861 862 862 864 866 867 871 875 878 879 880 880 880 880 880 881 881 881 881 881 881 881 881 881 881 881
785 787 790 793 794 796 799 800 802 805 807 808 809 811 813 814 816 818 820 821 822 824 826 827 828 829 830 831 832 833 835 836 836 837 837 838 838 839 840 840 841 842 843 844 845 846 848 849 850 851 852 853 855 856 858 860 860 860 861 862 862 863 864 865 866 867 870 875 879 880 880 881 881 881 881 882 882 882 882 882 882 882 882 882 882
785 787 790 793 794 796 798 800 803 805 807 808 809 811 812 814 816 817 819 821 822 824 825 827 828 829 830 831 832 833 834 835 836 836 837 838 838 839 839 840 841 842 843 844 845 846 848 849 850 851 853 854 856 858 859 859 859 860 861 861 862 863 864 866 867 867 868 872 876 879 881 881 882 882 882 883 883 883 883 884 884 884 884 884 884
784 786 790 793 795 796 798 800 802 804 806 808 809 811 812 813 815 816 818 820 822 823 825 827 828 829 830 831 832 833 835 835 836 836 837 837 838 838 839 840 841 842 843 844 845 847 848 850 851 852 854 855 857 859 859 859 859 860 860 861 861 862 864 865 867 868 869 871 874 877 880 881 882 883 884 884 884 885 885 885 885 885 885 885 885
784 787 790 793 794 796 798 800 802 804 805 807 809 810 811 813 814 815 817 819 821 823 824 826 827 829 830 831 832 833 834 835 836 836 837 837 838 838 839 840 840 841 842 844 845 847 848 849 851 853 854 855 857 858 859 859 859 860 860 860 861 861 862 863 865 867 869 870 872 876 879 880 882 884 885 885 885 886 886 886 886 886 886 886 886